Home   Weather   Ostrava   Past weeks

Flag for Czech Republic Past Weather in Ostrava, Czech Republic — Yesterday and Last 2 Weeks

Now
73 °F

Overcast.


Feels Like: 77 °F
Forecast: 57 / 72 °F
Wind: 8 mph from Southwest

Location: Ostrava / Mosnov

Current Time: Sep 29, 2016 at 7:09:20 PM

Latest Report: Sep 29, 2016 at 5:00 PM


Visibility: 25 mi

Pressure: 30.06 "Hg

Humidity: 44%

Dew Point: 49 °F

Location of OstravaLocation

Past Weather in Ostrava — Graph

°F

Ostrava Temperature Yesterday

Maximum temperature yesterday: 69 °F (at 4:00 PM)
Minimum temperature yesterday: 43 °F (at 5:00 AM)
Average temperature yesterday: 57 °F

High & Low Weather Summary for the Past Weeks

 TemperatureHumidityPressure
High80 °F (Sep 16, 3:00 PM)100% (Sep 25, 6:00 AM)30.37 "Hg (Sep 25, 6:00 AM)
Low38 °F (Sep 23, 7:00 AM)42% (Sep 29, 2:00 PM)29.81 "Hg (Sep 17, 10:00 AM)
Average57 °F80%30.11 "Hg
* Reported Sep 14 5:00 PM — Sep 29 5:00 PM, Ostrava, Weather by CustomWeather, © 2016

Note: Actual official high and low records may vary slightly from our data, if they occured in-between our weather recording intervals... More about our weather records

Advertising

Ostrava Weather History for the Previous 24 Hours

Scroll right to see more
 ConditionsComfort  
Time TempWeatherWind HumidityBarometerVisibility
5:00 PM
Thu, Sep 29
73 °FOvercast.8 mph44%30.06 "Hg25 mi
4:00 PM72 °FOvercast.9 mph42%30.07 "Hg25 mi
3:00 PM73 °FPartly sunny.9 mph42%30.09 "Hg19 mi
2:00 PM72 °FPartly sunny.10 mph42%30.10 "Hg19 mi
1:00 PM71 °FPartly sunny.10 mph47%30.13 "Hg19 mi
11:00 AM65 °FPartly sunny.8 mph58%30.18 "Hg19 mi
9:00 AM63 °FPartly sunny.7 mph66%30.22 "Hg16 mi
8:00 AM61 °FOvercast.6 mph69%30.22 "Hg11 mi
7:00 AM61 °FOvercast.5 mph70%30.20 "Hg9 mi
6:00 AM61 °FOvercast.6 mph69%30.20 "Hg9 mi
5:00 AM62 °FOvercast.6 mph68%30.21 "Hg9 mi
4:00 AM62 °FOvercast.5 mph66%30.21 "Hg9 mi
3:00 AM63 °FOvercast.5 mph65%30.22 "Hg9 mi
2:00 AM64 °FOvercast.5 mph63%30.22 "Hg9 mi
1:00 AM64 °FOvercast.6 mph63%30.21 "Hg9 mi
12:00 AM65 °FOvercast.6 mph61%30.21 "Hg9 mi
11:00 PM
Wed, Sep 28
65 °FOvercast.7 mph60%30.20 "Hg9 mi
10:00 PM62 °FOvercast.5 mph67%30.21 "Hg9 mi
9:00 PM63 °FOvercast.7 mph63%30.21 "Hg9 mi
8:00 PM63 °FOvercast.7 mph63%30.21 "Hg9 mi
7:00 PM64 °FOvercast.6 mph63%30.22 "Hg9 mi
Weather by CustomWeather, © 2016

See weather overviewHow to use our weather pages